This is the latest recevied weather packets stored in our database for station/object K0SNA. If no packets are shown the sender has not sent any weather packets the latest 10 day(s).
| Time | Temp. | Humidity | Pressure | Rain* | Wind** | Luminosity | Snow |
|---|---|---|---|---|---|---|---|
| 1777896978 | 15° C | 45% | 997.2 hPa | 0 mm | - | 78 W/m² | - |
| 1777896675 | 15° C | 46% | 997.1 hPa | 0 mm | - | 69 W/m² | - |
| 1777896372 | 15° C | 46% | 997 hPa | 0 mm | - | 57 W/m² | - |
| 1777896070 | 15° C | 46% | 997 hPa | 0 mm | - | 46 W/m² | - |
| 1777895768 | 15° C | 45% | 996.8 hPa | 0 mm | - | 40 W/m² | - |
| 1777895465 | 15° C | 46% | 996.6 hPa | 0 mm | - | 35 W/m² | - |
| 1777895163 | 14.44° C | 46% | 996.4 hPa | 0 mm | - | 31 W/m² | - |
| 1777894859 | 14.44° C | 46% | 996.2 hPa | 0 mm | - | 29 W/m² | - |
| 1777894557 | 14.44° C | 46% | 996.4 hPa | 0 mm | - | 27 W/m² | - |
| 1777894254 | 14.44° C | 45% | 996.2 hPa | 0 mm | - | 20 W/m² | - |
| 1777893951 | 14.44° C | 45% | 996.5 hPa | 0 mm | - | 15 W/m² | - |
| 1777893647 | 14.44° C | 44% | 996.3 hPa | 0 mm | - | 10 W/m² | - |
| 1777893344 | 15° C | 44% | 996.4 hPa | 0 mm | - | 7 W/m² | - |
| 1777893039 | 15° C | 44% | 996.3 hPa | 0 mm | - | 5 W/m² | - |
| 1777892737 | 15° C | 43% | 996.3 hPa | 0 mm | - | 3 W/m² | - |
| 1777892427 | 15° C | 42% | 996.2 hPa | 0 mm | - | 2 W/m² | - |
| 1777892123 | 15° C | 43% | 996.1 hPa | 0 mm | - | 1 W/m² | - |
| 1777891821 | 14.44° C | 44% | 996.3 hPa | 0 mm | - | 0 W/m² | - |
| 1777891517 | 14.44° C | 45% | 995.9 hPa | 0 mm | - | 0 W/m² | - |
| 1777891213 | 14.44° C | 44% | 996.1 hPa | 0 mm | - | 0 W/m² | - |
| 1777890908 | 14.44° C | 44% | 996.1 hPa | 0 mm | - | 0 W/m² | - |
| 1777890603 | 14.44° C | 44% | 996.3 hPa | 0 mm | - | 0 W/m² | - |
| 1777890298 | 14.44° C | 44% | 996.3 hPa | 0 mm | - | 0 W/m² | - |
| 1777889995 | 13.89° C | 45% | 996.3 hPa | 0 mm | - | 0 W/m² | - |
| 1777889693 | 13.89° C | 45% | 996.7 hPa | 0 mm | - | 0 W/m² | - |
* Rain latest hour (hover to see other rain measurements)
** Current wind speed in m/s (hover to see current wind gust speed)